Weather History for Sheridan, WY

Change the Weather History Date:

Tuesday, May 7, 2013

  Actual Average Record
Temperature  
Mean Temperature 56 °F 50 °F  
Max Temperature 77 °F 64 °F 92 °F (1934)
Min Temperature 35 °F 36 °F 23 °F (2010)
Degree Days  
Heating Degree Days 9 15  
Month to date heating degree days 128 113  
Since 1 July heating degree days 7220 7214  
Cooling Degree Days 0 0  
Month to date cooling degree days 0 0  
Year to date cooling degree days 0 0  
Growing Degree Days 7 (Base 50)    
Moisture  
Dew Point 34 °F    
Average Humidity 48    
Maximum Humidity 76    
Minimum Humidity 20    
Precipitation  
Precipitation 0.00 in 0.08 in 2.45 in (2005)
Month to date precipitation 0.15 0.52  
Year to date precipitation 4.44 4.20  
Sea Level Pressure  
Sea Level Pressure 29.83 in    
Wind  
Wind Speed 5 mph (NW)    
Max Wind Speed 15 mph    
Max Gust Speed 20 mph    
Visibility 10 miles    
Events      
T = Trace of Precipitation, MM = Missing Value Source: NWS Daily Summary

Daily Weather History Graph

Daily Weather History Graph

Search for Another Location

Airport:

Trip Planner

Search our weather history database for the weather conditions in past years. The results will help you decide how hot, cold, wet, or windy it might be!

Date:

Astronomy

May. 07, 2013 Rise Set
Actual Time 5:48 AM MDT 8:20 PM MDT
Civil Twilight 5:15 AM MDT 8:53 PM MDT
Nautical Twilight 4:34 AM MDT 9:35 PM MDT
Astronomical Twilight 3:47 AM MDT 10:22 PM MDT
Moon 4:30 AM MDT (5/7) 6:19 PM MDT (5/7)
Length of Visible Light 15h 37m
Length of Day
14h 31m
Waning Crescent, 5% of the Moon is Illuminated
May 7
Waning Crescent
May 9
New
May 17
First Quarter
May 24
Full
May 31
Last Quarter

Hourly Weather History & Observations

Time (MDT) Temp. Windchill Dew Point Humidity Pressure Visibility Wind Dir Wind Speed Gust Speed Precip Events Conditions
12:53 AM 43.0 °F - 34.0 °F 71% 29.86 in 10.0 mi Calm Calm - N/A   Clear
1:53 AM 44.1 °F 40.1 °F 33.1 °F 65% 29.86 in 10.0 mi NW 6.9 mph - N/A   Clear
2:53 AM 42.1 °F - 32.0 °F 67% 29.85 in 10.0 mi Calm Calm - N/A   Clear
3:53 AM 37.9 °F 35.5 °F 30.9 °F 76% 29.86 in 10.0 mi SSW 3.5 mph - N/A   Clear
4:53 AM 37.9 °F - 30.9 °F 76% 29.86 in 10.0 mi Calm Calm - N/A   Clear
5:53 AM 37.0 °F - 30.9 °F 79% 29.86 in 10.0 mi Calm Calm - N/A   Clear
6:53 AM 43.0 °F - 36.0 °F 76% 29.85 in 10.0 mi Calm Calm - N/A   Clear
7:53 AM 51.1 °F - 39.0 °F 63% 29.83 in 10.0 mi Calm Calm - N/A   Clear
8:53 AM 57.9 °F - 39.0 °F 49% 29.83 in 10.0 mi Calm Calm - N/A   Clear
9:53 AM 64.9 °F - 39.0 °F 39% 29.82 in 10.0 mi ENE 3.5 mph - N/A   Clear
10:53 AM 70.0 °F - 36.0 °F 29% 29.81 in 10.0 mi Variable 4.6 mph - N/A   Clear
11:53 AM 73.0 °F - 30.0 °F 20% 29.81 in 10.0 mi NNE 5.8 mph - N/A   Clear
12:53 PM 73.9 °F - 30.9 °F 21% 29.80 in 10.0 mi NE 6.9 mph - N/A   Clear
1:53 PM 73.9 °F - 30.0 °F 20% 29.79 in 10.0 mi WSW 5.8 mph - N/A   Clear
2:53 PM 73.0 °F - 30.9 °F 21% 29.78 in 10.0 mi Calm Calm - N/A   Partly Cloudy
3:53 PM 73.0 °F - 39.0 °F 29% 29.79 in 10.0 mi NW 6.9 mph - N/A   Scattered Clouds
4:53 PM 75.9 °F - 36.0 °F 23% 29.78 in 10.0 mi NNE 9.2 mph 19.6 mph N/A   Partly Cloudy
5:53 PM 73.0 °F - 37.0 °F 27% 29.80 in 10.0 mi NNW 11.5 mph - N/A   Clear
6:53 PM 71.1 °F - 37.0 °F 29% 29.80 in 10.0 mi NNW 13.8 mph - N/A   Clear
7:53 PM 62.1 °F - 37.9 °F 41% 29.82 in 10.0 mi WNW 9.2 mph - N/A   Clear
8:53 PM 57.9 °F - 36.0 °F 44% 29.84 in 10.0 mi WNW 9.2 mph - N/A   Mostly Cloudy
9:53 PM 57.0 °F - 35.1 °F 44% 29.86 in 10.0 mi WNW 8.1 mph - N/A   Mostly Cloudy
10:53 PM 57.0 °F - 34.0 °F 42% 29.86 in 10.0 mi WNW 9.2 mph - N/A   Scattered Clouds
11:53 PM 52.0 °F - 35.1 °F 53% 29.88 in 10.0 mi SW 3.5 mph - N/A   Scattered Clouds